Weather in Karahalli

Turkey     38°19′08″N   29°31′46″E
temp.,
°C
wind,
m/s
gust,
m/s
humid.,
%
clouds,
%
prec.,
mm/h
press.,
hPa
HPBL,
m
12 april, mon
mon1200:00+2ene22685 0.0 102318
03:00+1n007012 0.0 102310
06:000e117483 0.0 102310
09:00+3ese12615 0.0 1023500
12:00+8wnw234867 0.0 10221288
15:00+11nnw344174 0.0 10191734
18:00+11nnw654588 0.0 10191496
21:00+8nnw22605 0.0 102012
13 april, tue
tue1300:00+6nne11674 0.0 102010
03:00+5ssw00735 0.0 102010
06:00+4ese11804 0.0 102010
09:00+8sse11580 0.0 1021304
12:00+13w22390 0.0 10191205
15:00+16wnw443022 0.0 10171588
18:00+16w5534100 0.0 10161631
21:00+12nnw115180 0.0 101710
14 april, wed
wed1400:00+11ssw1158100 0.0 101710
03:00+9s1167100 0.0 101710
06:00+8se227289 0.0 101710
09:00+11se236178 0.0 1017353
12:00+18sw5928100 0.0 10151807
15:00+18sw81127100 0.0 10142488
18:00+16wsw91133100 0.0 10142196
21:00+12w2250100 0.0 101520
15 april, thu
thu1500:00+10wnw2256100 0.0 101510
03:00+8wsw01635 0.0 101610
06:00+6ese11781 0.0 101610
09:00+11se11585 0.0 1016363
12:00+16sw36310 0.0 10152012
15:00+18w78291 0.0 10132086
18:00+17w7733100 0.0 10122142
21:00+12w33525 0.0 101428
16 april, fri
fri1600:00+10nnw22605 0.0 101410
03:00+8nne11826 0.0 101510
06:00+7nne1187100 0.0 101510
09:00+11ene016992 0.0 1015379
12:00+16sw243792 0.0 10151390
15:00+19w672343 0.0 10131842
18:00+18wnw662760 0.0 10131449
21:00+12nnw3354100 0.0 101540